Weather History for KBLI - May, 2012

Change the Weather History Date:

Wednesday, May 30, 2012

  Actual Average Record
Temperature  
Mean Temperature 56 °F 56 °F  
Max Temperature 61 °F 64 °F 85 °F (1956)
Min Temperature 50 °F 48 °F 37 °F (1953)
Degree Days  
Heating Degree Days 10 9  
Month to date heating degree days 336  
Cooling Degree Days 0 0  
Month to date cooling degree days 0  
Year to date cooling degree days 0  
Growing Degree Days 6 (Base 50)    
Moisture  
Dew Point 47 °F    
Average Humidity 76    
Maximum Humidity 97    
Minimum Humidity 58    
Precipitation  
Precipitation 0.16 in 0.08 in 0.40 in (1987)
Month to date precipitation 2.40  
Year to date precipitation 16.00  
Sea Level Pressure  
Sea Level Pressure 30.23 in    
Wind  
Wind Speed 2 mph (SSW)    
Max Wind Speed 8 mph    
Max Gust Speed -    
Visibility 9 miles    
Events Rain    
T = Trace of Precipitation, MM = Missing Value Source: NWS Daily Summary

Daily Weather History Graph

Daily Weather History Graph

Search for Another Location

Airport or City:

Trip Planner

Search our weather history database for the weather conditions in past years. The results will help you decide how hot, cold, wet, or windy it might be!

Date:

Astronomy

May. 30, 2012 Rise Set
Actual Time 5:12 AM PDT 9:03 PM PDT
Civil Twilight 4:31 AM PDT 9:44 PM PDT
Nautical Twilight 3:35 AM PDT 10:40 PM PDT
Astronomical Twilight 2:09 AM PDT 12:08 AM PDT
Moon 3:26 PM PDT (5/30) 2:06 AM PDT (5/30)
Length of Visible Light 17h 12m
Length of Day
15h 51m
Waxing Gibbous, 71% of the Moon is Illuminated
May 30
Waxing Gibbous
Jun 4
Full
Jun 11
Last Quarter
Jun 19
New
Jun 26
First Quarter

Hourly Weather History & Observations

Time (PDT) Temp. Dew Point Humidity Pressure Visibility Wind Dir Wind Speed Gust Speed Precip Events Conditions
12:53 AM 52.0 °F 45.0 °F 77% 30.19 in 10.0 mi Calm Calm - N/A   Overcast
1:53 AM 50.0 °F 46.0 °F 86% 30.20 in 10.0 mi Calm Calm - N/A   Overcast
2:53 AM 52.0 °F 44.1 °F 74% 30.19 in 10.0 mi East 4.6 mph - N/A   Overcast
3:53 AM 51.1 °F 45.0 °F 80% 30.19 in 10.0 mi Calm Calm - N/A   Overcast
4:53 AM 52.0 °F 45.0 °F 77% 30.20 in 10.0 mi Calm Calm - N/A   Overcast
5:53 AM 50.0 °F 46.0 °F 86% 30.22 in 10.0 mi Calm Calm - 0.00 in Rain Light Rain
6:53 AM 50.0 °F 46.0 °F 86% 30.24 in 10.0 mi Calm Calm - 0.00 in   Overcast
7:53 AM 52.0 °F 46.0 °F 80% 30.24 in 10.0 mi Calm Calm - 0.00 in Rain Light Rain
8:53 AM 53.1 °F 46.9 °F 80% 30.25 in 10.0 mi Calm Calm - 0.00 in   Overcast
9:53 AM 55.0 °F 46.0 °F 72% 30.27 in 10.0 mi South 3.5 mph - N/A   Overcast
10:53 AM 55.9 °F 46.0 °F 69% 30.27 in 10.0 mi Calm Calm - 0.00 in   Overcast
11:53 AM 55.9 °F 46.0 °F 69% 30.28 in 10.0 mi SSW 4.6 mph - N/A   Overcast
12:53 PM 57.9 °F 46.9 °F 67% 30.27 in 10.0 mi South 8.1 mph - N/A   Overcast
1:53 PM 59.0 °F 46.9 °F 64% 30.27 in 10.0 mi South 8.1 mph - N/A   Mostly Cloudy
2:53 PM 60.1 °F 46.0 °F 60% 30.27 in 10.0 mi South 6.9 mph - N/A   Overcast
3:53 PM 61.0 °F 46.0 °F 58% 30.26 in 10.0 mi Variable 3.5 mph - N/A   Overcast
4:53 PM 59.0 °F 45.0 °F 60% 30.24 in 10.0 mi WNW 3.5 mph - N/A   Overcast
5:53 PM 59.0 °F 46.9 °F 64% 30.22 in 10.0 mi Calm Calm - 0.00 in   Overcast
6:53 PM 59.0 °F 46.9 °F 64% 30.22 in 10.0 mi Calm Calm - 0.00 in Rain Light Rain
7:53 PM 55.0 °F 51.1 °F 86% 30.22 in 6.0 mi WSW 3.5 mph - 0.02 in Rain Light Rain
8:53 PM 53.1 °F 50.0 °F 89% 30.20 in 5.0 mi Calm Calm - 0.06 in Rain Light Rain
9:53 PM 52.0 °F 50.0 °F 93% 30.19 in 8.0 mi Calm Calm - 0.03 in Rain Light Rain
10:53 PM 52.0 °F 50.0 °F 93% 30.17 in 5.0 mi Calm Calm - 0.03 in Rain Light Rain
11:53 PM 52.0 °F 51.1 °F 97% 30.16 in 4.0 mi West 3.5 mph - 0.02 in Rain Light Rain